EN

Hourly Weather Ozernyy

Today, 5 March, Friday

Time Temperature Precipitation Wind Pressure Humidity
00:00 -10°C° 0.1 mm 6 mps 701 mmHg 88%
01:00 -9°C° 0.1 mm 7 mps 701 mmHg 87%
02:00 -8°C° 0.3 mm 8 mps 701 mmHg 88%
03:00 -7°C° 0.3 mm 8 mps 701 mmHg 88%
04:00 -6°C° 0 mm 8 mps 701 mmHg 89%
05:00 -7°C° 0.3 mm 8 mps 702 mmHg 89%
06:00 -7°C° 0.3 mm 7 mps 702 mmHg 88%
07:00 -8°C° 0.3 mm 7 mps 703 mmHg 88%
08:00 -7°C° 0.1 mm 7 mps 703 mmHg 88%
09:00 -6°C° 0.1 mm 6 mps 703 mmHg 87%
10:00 -5°C° 0 mm 6 mps 703 mmHg 87%
11:00 -5°C° 0.1 mm 6 mps 703 mmHg 87%
12:00 -5°C° 0.1 mm 6 mps 703 mmHg 87%
13:00 -6°C° 0.1 mm 7 mps 703 mmHg 88%
14:00 -5°C° 0.2 mm 6 mps 703 mmHg 89%
15:00 -5°C° 0.2 mm 6 mps 702 mmHg 90%
16:00 -5°C° 0 mm 6 mps 701 mmHg 91%
17:00 -5°C° 0.2 mm 6 mps 701 mmHg 92%
18:00 -6°C° 0.2 mm 5 mps 701 mmHg 92%
19:00 -5°C° 0.2 mm 4 mps 702 mmHg 93%
20:00 -8°C° 0 mm 4 mps 703 mmHg 90%
21:00 -9°C° 0 mm 4 mps 704 mmHg 88%
22:00 -11°C° 0 mm 4 mps 705 mmHg 85%
23:00 -12°C° 0 mm 4 mps 705 mmHg 86%

Tomorrow, 6 March, Saturday

Time Temperature Precipitation Wind Pressure Humidity
00:00 -13°C° 0 mm 3 mps 706 mmHg 86%
01:00 -15°C° 0 mm 3 mps 707 mmHg 87%
02:00 -16°C° 0 mm 3 mps 707 mmHg 88%
03:00 -16°C° 0 mm 2 mps 708 mmHg 88%
04:00 -17°C° 0 mm 2 mps 708 mmHg 89%
05:00 -18°C° 0 mm 2 mps 708 mmHg 90%
06:00 -18°C° 0 mm 2 mps 709 mmHg 91%
07:00 -19°C° 0 mm 2 mps 709 mmHg 92%
08:00 -17°C° 0 mm 2 mps 709 mmHg 89%
09:00 -14°C° 0 mm 2 mps 710 mmHg 86%
10:00 -13°C° 0 mm 3 mps 710 mmHg 83%
11:00 -12°C° 0 mm 3 mps 710 mmHg 81%
12:00 -9°C° 0 mm 3 mps 710 mmHg 78%
13:00 -9°C° 0 mm 4 mps 710 mmHg 76%
14:00 -9°C° 0 mm 4 mps 710 mmHg 77%
15:00 -8°C° 0 mm 3 mps 710 mmHg 79%
16:00 -8°C° 0 mm 3 mps 710 mmHg 80%
17:00 -10°C° 0 mm 3 mps 710 mmHg 83%
18:00 -13°C° 0 mm 3 mps 710 mmHg 85%
19:00 -14°C° 0 mm 2 mps 710 mmHg 88%
20:00 -14°C° 0 mm 2 mps 710 mmHg 90%
21:00 -14°C° 0 mm 2 mps 710 mmHg 91%
22:00 -15°C° 0 mm 2 mps 710 mmHg 93%
23:00 -13°C° 0 mm 1 mps 710 mmHg 93%

Day after tomorrow, 7 March, Sunday

Time Temperature Precipitation Wind Pressure Humidity
00:00 -13°C° 0 mm 1 mps 709 mmHg 92%
01:00 -13°C° 0 mm 1 mps 709 mmHg 92%
02:00 -13°C° 0 mm 1 mps 709 mmHg 92%
03:00 -13°C° 0 mm 1 mps 709 mmHg 92%
04:00 -13°C° 0 mm 0 mps 709 mmHg 92%
05:00 -13°C° 0 mm 0 mps 708 mmHg 93%
06:00 -13°C° 0 mm 0 mps 708 mmHg 93%
07:00 -13°C° 0 mm 0 mps 708 mmHg 94%
08:00 -12°C° 0.1 mm 0 mps 707 mmHg 94%
09:00 -11°C° 0.1 mm 1 mps 707 mmHg 93%
10:00 -10°C° 0.1 mm 1 mps 707 mmHg 92%
11:00 -9°C° 0.3 mm 1 mps 706 mmHg 92%
12:00 -10°C° 0.3 mm 2 mps 706 mmHg 92%
13:00 -10°C° 0.3 mm 2 mps 706 mmHg 93%
14:00 -10°C° 0.3 mm 2 mps 706 mmHg 93%
15:00 -10°C° 0.3 mm 2 mps 705 mmHg 93%
16:00 -12°C° 0.3 mm 3 mps 705 mmHg 93%
17:00 -12°C° 0.2 mm 2 mps 706 mmHg 92%
18:00 -13°C° 0.2 mm 2 mps 706 mmHg 92%
19:00 -15°C° 0.2 mm 2 mps 706 mmHg 92%
20:00 -17°C° 0 mm 2 mps 707 mmHg 92%
21:00 -19°C° 0 mm 2 mps 707 mmHg 92%
22:00 -21°C° 0 mm 2 mps 707 mmHg 92%
23:00 -21°C° 0 mm 2 mps 708 mmHg 93%

8 March, Monday

Time Temperature Precipitation Wind Pressure Humidity
00:00 -23°C° 0 mm 2 mps 708 mmHg 94%
01:00 -24°C° 0 mm 2 mps 708 mmHg 95%
02:00 -24°C° 0 mm 2 mps 708 mmHg 95%
03:00 -25°C° 0 mm 2 mps 708 mmHg 95%
04:00 -22°C° 0 mm 1 mps 708 mmHg 95%
05:00 -21°C° 0 mm 1 mps 708 mmHg 96%
06:00 -21°C° 0 mm 1 mps 708 mmHg 96%
07:00 -20°C° 0 mm 1 mps 708 mmHg 96%
08:00 -20°C° 0 mm 2 mps 708 mmHg 95%
09:00 -18°C° 0 mm 3 mps 708 mmHg 93%
10:00 -17°C° 0 mm 4 mps 708 mmHg 92%
11:00 -15°C° 0.2 mm 5 mps 708 mmHg 92%
12:00 -14°C° 0.2 mm 6 mps 707 mmHg 91%
13:00 -13°C° 0.2 mm 7 mps 707 mmHg 91%
14:00 -12°C° 0.1 mm 7 mps 707 mmHg 89%
15:00 -11°C° 0.1 mm 6 mps 707 mmHg 87%
16:00 -10°C° 0.1 mm 6 mps 707 mmHg 85%
17:00 -11°C° 0 mm 5 mps 707 mmHg 86%
18:00 -11°C° 0 mm 4 mps 707 mmHg 88%
19:00 -12°C° 0 mm 3 mps 707 mmHg 89%
20:00 -12°C° 0 mm 3 mps 706 mmHg 90%
21:00 -12°C° 0 mm 3 mps 706 mmHg 92%
22:00 -14°C° 0 mm 4 mps 706 mmHg 93%
23:00 -11°C° 0.1 mm 4 mps 706 mmHg 93%

9 March, Tuesday

Time Temperature Precipitation Wind Pressure Humidity
00:00 -11°C° 0.1 mm 5 mps 705 mmHg 93%
01:00 -10°C° 0.1 mm 6 mps 705 mmHg 93%
02:00 -10°C° 0.2 mm 6 mps 705 mmHg 92%
03:00 -9°C° 0.2 mm 6 mps 705 mmHg 91%
04:00 -9°C° 0.2 mm 6 mps 705 mmHg 90%
05:00 -10°C° 0.2 mm 5 mps 705 mmHg 91%
06:00 -9°C° 0.2 mm 4 mps 705 mmHg 92%
07:00 -9°C° 0.2 mm 3 mps 705 mmHg 94%
08:00 -8°C° 0.3 mm 3 mps 705 mmHg 93%
09:00 -8°C° 0.3 mm 3 mps 705 mmHg 92%
10:00 -7°C° 0.3 mm 3 mps 705 mmHg 91%
11:00 -8°C° 0.4 mm 4 mps 705 mmHg 91%
12:00 -8°C° 0.4 mm 4 mps 705 mmHg 91%
13:00 -8°C° 0.4 mm 5 mps 705 mmHg 91%
14:00 -8°C° 0.2 mm 5 mps 705 mmHg 87%
15:00 -10°C° 0.2 mm 6 mps 705 mmHg 83%
16:00 -11°C° 0.2 mm 6 mps 706 mmHg 78%
17:00 -13°C° 0 mm 5 mps 706 mmHg 81%
18:00 -14°C° 0 mm 4 mps 707 mmHg 84%
19:00 -16°C° 0 mm 4 mps 707 mmHg 87%
20:00 -16°C° 0 mm 3 mps 707 mmHg 88%
21:00 -18°C° 0 mm 3 mps 708 mmHg 90%
22:00 -18°C° 0 mm 2 mps 708 mmHg 92%
23:00 -18°C° 0 mm 2 mps 708 mmHg 92%

10 March, Wednesday

Time Temperature Precipitation Wind Pressure Humidity
00:00 -18°C° 0 mm 2 mps 708 mmHg 92%
01:00 -17°C° 0 mm 1 mps 708 mmHg 93%
02:00 -17°C° 0 mm 1 mps 708 mmHg 93%
03:00 -17°C° 0 mm 1 mps 708 mmHg 93%
04:00 -18°C° 0 mm 1 mps 708 mmHg 93%
05:00 -17°C° 0 mm 1 mps 708 mmHg 93%
06:00 -17°C° 0 mm 1 mps 707 mmHg 92%
07:00 -17°C° 0 mm 1 mps 707 mmHg 92%
08:00 -15°C° 0 mm 1 mps 707 mmHg 90%
09:00 -14°C° 0 mm 1 mps 707 mmHg 88%
10:00 -12°C° 0 mm 1 mps 707 mmHg 86%
11:00 -13°C° 0 mm 2 mps 707 mmHg 84%
12:00 -12°C° 0 mm 2 mps 707 mmHg 82%
13:00 -12°C° 0 mm 3 mps 707 mmHg 80%
14:00 -13°C° 0 mm 3 mps 707 mmHg 81%
15:00 -13°C° 0 mm 3 mps 707 mmHg 83%
16:00 -14°C° 0 mm 4 mps 707 mmHg 84%
17:00 -14°C° 0 mm 3 mps 707 mmHg 85%
18:00 -15°C° 0 mm 3 mps 707 mmHg 86%
19:00 -17°C° 0 mm 3 mps 707 mmHg 87%
20:00 -18°C° 0 mm 3 mps 707 mmHg 88%
21:00 -19°C° 0 mm 3 mps 707 mmHg 88%
22:00 -21°C° 0 mm 3 mps 707 mmHg 88%
23:00 -22°C° 0 mm 3 mps 707 mmHg 89%
Show more

We Need Your Consent

Meteoprog and our Service Providers may store and access personal data such as cookies, device identifiers or other similar technologies on your device and process such data to personalise content and ads, as well as provide social media features and to analyse the traffic.

  • Store and/or access information on your device

    Cookies, device identifiers or other information can be stored or accessed on your device for the purposes indicated above.

  • Personalised ads and content, ad and content measurement, audience insights, and products development

    Ads and content can be personalised based on a profile. More data can be added to better personalise ads and content. Ad and content performance can be measured. Insights about the audience who saw the ads and content can be derived. Such data can be used to develop or improve user’s experience, systems and software.

By clicking ‘I Agree’ you will allow the use of indicated cookies, device identifiers, web beacons or other similar technologies. Your settings can be changed in the browser on your device.

For certain purposes, legitimate interests may be relied on, rather than consent. You can read more about this in our Privacy and Cookie Policy.